When you browse on this site, cookies collect data to enhance your experience and personalize the content and advertising you see.
Visit our Privacy Policy to learn more. By continuing to use the site, you agree to this use of cookies and data.
  • In United Kingdom
  • List of Countries
  • For 7 days
  • Water Temperature
  • Satellite Maps
  • Weather Map
  • Weather Widgets
  • user-avatar
    Login

    Hourly Weather Qorateri

    Today, 27 June, Thursday

    Time Temperature Precipitation Wind Pressure Humidity
    00:00 +27°C° 0.6 mm 3 mps 723 mmHg 37%
    01:00 +26°C° 0.6 mm 3 mps 722 mmHg 42%
    02:00 +25°C° 0.6 mm 3 mps 722 mmHg 47%
    03:00 +25°C° 0.2 mm 2 mps 722 mmHg 47%
    04:00 +25°C° 0.2 mm 2 mps 722 mmHg 48%
    05:00 +25°C° 0.2 mm 2 mps 722 mmHg 48%
    06:00 +27°C° 0 mm 2 mps 722 mmHg 42%
    07:00 +29°C° 0 mm 2 mps 722 mmHg 37%
    08:00 +31°C° 0 mm 2 mps 722 mmHg 31%
    09:00 +34°C° 0 mm 2 mps 722 mmHg 27%
    10:00 +35°C° 0 mm 1 mps 722 mmHg 22%
    11:00 +39°C° 0 mm 1 mps 722 mmHg 18%
    12:00 +40°C° 0 mm 1 mps 722 mmHg 16%
    13:00 +40°C° 0 mm 2 mps 722 mmHg 13%
    14:00 +42°C° 0 mm 3 mps 722 mmHg 11%
    15:00 +42°C° 0 mm 4 mps 722 mmHg 12%
    16:00 +41°C° 0 mm 4 mps 722 mmHg 13%
    17:00 +41°C° 0 mm 5 mps 722 mmHg 13%
    18:00 +38°C° 0.1 mm 6 mps 722 mmHg 19%
    19:00 +34°C° 0.1 mm 6 mps 722 mmHg 26%
    20:00 +30°C° 0.1 mm 7 mps 722 mmHg 32%
    21:00 +29°C° 0 mm 6 mps 722 mmHg 35%
    22:00 +28°C° 0 mm 5 mps 722 mmHg 37%
    23:00 +27°C° 0 mm 5 mps 722 mmHg 40%

    Tomorrow, 28 June, Friday

    Time Temperature Precipitation Wind Pressure Humidity
    00:00 +26°C° 0 mm 4 mps 721 mmHg 40%
    01:00 +26°C° 0 mm 4 mps 721 mmHg 40%
    02:00 +26°C° 0 mm 3 mps 721 mmHg 41%
    03:00 +25°C° 0 mm 3 mps 721 mmHg 41%
    04:00 +25°C° 0 mm 2 mps 721 mmHg 41%
    05:00 +25°C° 0 mm 1 mps 721 mmHg 41%
    06:00 +27°C° 0 mm 1 mps 721 mmHg 36%
    07:00 +29°C° 0 mm 1 mps 721 mmHg 32%
    08:00 +31°C° 0 mm 1 mps 721 mmHg 28%
    09:00 +33°C° 0 mm 1 mps 721 mmHg 24%
    10:00 +35°C° 0 mm 1 mps 721 mmHg 21%
    11:00 +37°C° 0 mm 1 mps 721 mmHg 17%
    12:00 +40°C° 0 mm 1 mps 721 mmHg 15%
    13:00 +41°C° 0 mm 1 mps 720 mmHg 13%
    14:00 +42°C° 0 mm 1 mps 720 mmHg 12%
    15:00 +42°C° 0 mm 1 mps 720 mmHg 11%
    16:00 +42°C° 0 mm 1 mps 720 mmHg 11%
    17:00 +42°C° 0 mm 2 mps 720 mmHg 10%
    18:00 +39°C° 0 mm 2 mps 720 mmHg 14%
    19:00 +37°C° 0 mm 2 mps 720 mmHg 18%
    20:00 +34°C° 0 mm 3 mps 721 mmHg 21%
    21:00 +33°C° 0 mm 3 mps 721 mmHg 24%
    22:00 +31°C° 0 mm 3 mps 721 mmHg 27%
    23:00 +30°C° 0 mm 4 mps 721 mmHg 30%

    Day after tomorrow, 29 June, Saturday

    Time Temperature Precipitation Wind Pressure Humidity
    00:00 +29°C° 0 mm 3 mps 721 mmHg 32%
    01:00 +28°C° 0 mm 2 mps 721 mmHg 34%
    02:00 +27°C° 0 mm 2 mps 721 mmHg 35%
    03:00 +27°C° 0 mm 2 mps 720 mmHg 36%
    04:00 +26°C° 0 mm 2 mps 720 mmHg 37%
    05:00 +26°C° 0 mm 2 mps 720 mmHg 37%
    06:00 +28°C° 0 mm 2 mps 720 mmHg 33%
    07:00 +30°C° 0 mm 2 mps 720 mmHg 28%
    08:00 +32°C° 0 mm 2 mps 720 mmHg 24%
    09:00 +35°C° 0 mm 2 mps 720 mmHg 21%
    10:00 +37°C° 0 mm 2 mps 720 mmHg 19%
    11:00 +39°C° 0 mm 2 mps 720 mmHg 16%
    12:00 +40°C° 0 mm 1 mps 720 mmHg 15%
    13:00 +42°C° 0 mm 1 mps 719 mmHg 13%
    14:00 +43°C° 0 mm 1 mps 719 mmHg 12%
    15:00 +43°C° 0 mm 1 mps 719 mmHg 11%
    16:00 +43°C° 0 mm 1 mps 720 mmHg 11%
    17:00 +43°C° 0 mm 2 mps 720 mmHg 11%
    18:00 +40°C° 0 mm 2 mps 720 mmHg 14%
    19:00 +38°C° 0 mm 3 mps 720 mmHg 17%
    20:00 +36°C° 0 mm 3 mps 721 mmHg 21%
    21:00 +34°C° 0 mm 3 mps 721 mmHg 24%
    22:00 +33°C° 0 mm 3 mps 721 mmHg 28%
    23:00 +30°C° 0 mm 4 mps 721 mmHg 31%

    30 June, Sunday

    Time Temperature Precipitation Wind Pressure Humidity
    00:00 +29°C° 0 mm 3 mps 721 mmHg 33%
    01:00 +29°C° 0 mm 3 mps 720 mmHg 35%
    02:00 +28°C° 0 mm 3 mps 720 mmHg 36%
    03:00 +27°C° 0 mm 3 mps 720 mmHg 36%
    04:00 +27°C° 0 mm 2 mps 720 mmHg 36%
    05:00 +27°C° 0 mm 2 mps 720 mmHg 37%
    06:00 +29°C° 0 mm 2 mps 720 mmHg 32%
    07:00 +31°C° 0 mm 2 mps 720 mmHg 28%
    08:00 +34°C° 0 mm 2 mps 720 mmHg 24%
    09:00 +36°C° 0 mm 2 mps 720 mmHg 22%
    10:00 +37°C° 0 mm 1 mps 720 mmHg 19%
    11:00 +40°C° 0 mm 1 mps 720 mmHg 17%
    12:00 +41°C° 0 mm 1 mps 720 mmHg 15%
    13:00 +43°C° 0 mm 1 mps 720 mmHg 14%
    14:00 +44°C° 0 mm 1 mps 719 mmHg 12%
    15:00 +44°C° 0 mm 1 mps 720 mmHg 12%
    16:00 +44°C° 0 mm 1 mps 720 mmHg 11%
    17:00 +44°C° 0 mm 1 mps 720 mmHg 11%
    18:00 +41°C° 0.1 mm 2 mps 720 mmHg 15%
    19:00 +39°C° 0.1 mm 3 mps 721 mmHg 19%
    20:00 +36°C° 0.1 mm 3 mps 721 mmHg 22%
    21:00 +34°C° 0 mm 3 mps 721 mmHg 27%
    22:00 +33°C° 0 mm 3 mps 721 mmHg 31%
    23:00 +30°C° 0 mm 3 mps 721 mmHg 35%

    1 July, Monday

    Time Temperature Precipitation Wind Pressure Humidity
    00:00 +30°C° 0 mm 3 mps 721 mmHg 36%
    01:00 +29°C° 0 mm 3 mps 720 mmHg 38%
    02:00 +28°C° 0 mm 3 mps 720 mmHg 39%
    03:00 +28°C° 0 mm 3 mps 720 mmHg 40%
    04:00 +28°C° 0 mm 3 mps 720 mmHg 40%
    05:00 +27°C° 0 mm 2 mps 720 mmHg 40%
    06:00 +30°C° 0 mm 2 mps 721 mmHg 36%
    07:00 +32°C° 0 mm 2 mps 721 mmHg 31%
    08:00 +35°C° 0 mm 2 mps 721 mmHg 26%
    09:00 +37°C° 0 mm 2 mps 721 mmHg 23%
    10:00 +39°C° 0 mm 2 mps 721 mmHg 20%
    11:00 +41°C° 0 mm 2 mps 721 mmHg 17%
    12:00 +43°C° 0 mm 1 mps 721 mmHg 15%
    13:00 +44°C° 0 mm 1 mps 721 mmHg 13%
    14:00 +45°C° 0 mm 1 mps 721 mmHg 11%
    15:00 +45°C° 0 mm 1 mps 721 mmHg 11%
    16:00 +45°C° 0 mm 1 mps 721 mmHg 10%
    17:00 +45°C° 0 mm 1 mps 721 mmHg 10%
    18:00 +42°C° 0 mm 2 mps 721 mmHg 13%
    19:00 +40°C° 0 mm 2 mps 721 mmHg 16%
    20:00 +38°C° 0 mm 3 mps 721 mmHg 19%
    21:00 +37°C° 0 mm 3 mps 721 mmHg 21%
    22:00 +35°C° 0 mm 3 mps 722 mmHg 24%
    23:00 +34°C° 0 mm 3 mps 722 mmHg 27%

    2 July, Tuesday

    Time Temperature Precipitation Wind Pressure Humidity
    00:00 +33°C° 0 mm 3 mps 721 mmHg 28%
    01:00 +31°C° 0 mm 3 mps 721 mmHg 29%
    02:00 +31°C° 0 mm 3 mps 721 mmHg 31%
    03:00 +30°C° 0 mm 3 mps 721 mmHg 31%
    04:00 +30°C° 0 mm 3 mps 721 mmHg 31%
    05:00 +29°C° 0 mm 3 mps 722 mmHg 31%
    06:00 +33°C° 0 mm 3 mps 722 mmHg 27%
    07:00 +35°C° 0 mm 3 mps 722 mmHg 23%
    08:00 +38°C° 0 mm 3 mps 722 mmHg 19%
    09:00 +40°C° 0 mm 2 mps 722 mmHg 17%
    10:00 +42°C° 0 mm 2 mps 722 mmHg 15%
    11:00 +44°C° 0 mm 1 mps 722 mmHg 13%
    12:00 +45°C° 0 mm 1 mps 722 mmHg 11%
    13:00 +46°C° 0 mm 1 mps 721 mmHg 10%
    14:00 +47°C° 0 mm 1 mps 721 mmHg 9%
    15:00 +47°C° 0 mm 1 mps 721 mmHg 9%
    16:00 +48°C° 0 mm 2 mps 721 mmHg 9%
    17:00 +48°C° 0 mm 2 mps 721 mmHg 9%
    18:00 +45°C° 0 mm 2 mps 721 mmHg 11%
    19:00 +42°C° 0 mm 2 mps 721 mmHg 13%
    20:00 +39°C° 0 mm 2 mps 721 mmHg 16%
    21:00 +38°C° 0 mm 2 mps 722 mmHg 19%
    22:00 +36°C° 0 mm 2 mps 722 mmHg 22%
    23:00 +35°C° 0 mm 3 mps 722 mmHg 25%
    Show more